FW2000 Weather Reports


Display with metric or nautical units.
time (UTC)temp
F
wind
direction
speed
MPH
gust
MPH
rain 1hr
in
rain 24hr
in
rain mn
in
humidity
%
barometer
mb
20260506042015 50 285 0.0 1.0 0.00 0.15 0.13 89 1019.6
20260506041516 50 285 0.0 0.0 0.00 0.15 0.13 89 1019.5
20260506041013 50 285 0.0 0.0 0.00 0.15 0.13 89 1019.6
20260506040513 50 285 0.0 1.0 0.00 0.15 0.13 89 1019.5
20260506040013 50 285 0.0 0.0 0.00 0.15 0.13 89 1019.4
20260506035516 50 285 0.0 0.0 0.00 0.15 0.13 89 1019.4
20260506035011 50 285 0.0 0.0 0.00 0.15 0.13 89 1019.3
20260506034511 50 285 0.0 0.0 0.00 0.15 0.13 89 1019.1
20260506034009 50 285 0.0 0.0 0.00 0.15 0.13 89 1019.0
20260506033508 50 285 0.0 0.0 0.00 0.15 0.13 89 1018.9
20260506033008 50 285 0.0 0.0 0.00 0.15 0.13 89 1018.8
20260506032508 50 285 0.0 0.0 0.00 0.15 0.13 88 1018.8
20260506032008 50 285 0.0 0.0 0.00 0.15 0.13 88 1018.7
20260506031508 50 285 0.0 0.0 0.00 0.15 0.13 88 1018.6
20260506031010 50 285 0.0 1.0 0.00 0.15 0.13 88 1018.6
20260506030508 50 285 0.0 1.0 0.00 0.15 0.13 88 1018.6
20260506030016 50 285 0.0 2.0 0.00 0.15 0.13 88 1018.6
20260506025506 50 285 0.0 2.0 0.00 0.15 0.13 88 1018.7
20260506025006 50 285 0.0 1.0 0.00 0.15 0.13 88 1018.6
20260506024516 50 285 0.0 0.0 0.00 0.15 0.13 88 1018.6
20260506024005 50 285 0.0 0.0 0.00 0.15 0.13 87 1018.6
20260506023505 50 285 0.0 0.0 0.00 0.15 0.13 87 1018.5
20260506023005 50 285 0.0 0.0 0.00 0.15 0.13 87 1018.4
20260506022504 50 285 0.0 0.0 0.00 0.15 0.13 87 1018.3
20260506022004 50 285 0.0 0.0 0.00 0.15 0.13 87 1018.3
20260506021504 50 285 0.0 0.0 0.00 0.15 0.13 87 1018.2
20260506021003 50 285 0.0 0.0 0.00 0.15 0.13 86 1018.2
20260506020503 50 285 0.0 0.0 0.00 0.15 0.13 86 1018.3
20260506020005 50 285 0.0 0.0 0.00 0.15 0.13 86 1018.1
20260506015503 50 285 0.0 0.0 0.00 0.15 0.13 86 1018.3
20260506015003 50 285 0.0 2.0 0.00 0.15 0.13 86 1018.3
20260506014502 51 285 0.0 2.0 0.00 0.15 0.13 86 1018.3
20260506014002 50 285 0.0 3.0 0.00 0.15 0.13 86 1018.2
20260506013501 51 284 1.0 3.0 0.00 0.15 0.13 87 1018.2
20260506013002 51 282 0.0 2.0 0.00 0.15 0.13 87 1018.3
20260506012502 51 282 0.0 2.0 0.00 0.15 0.13 87 1018.4
20260506012059 51 281 0.0 2.0 0.00 0.15 0.13 86 1018.3
20260506011559 51 281 0.0 3.0 0.00 0.15 0.13 86 1018.3
20260506011101 51 284 0.0 2.0 0.00 0.15 0.13 85 1018.2
20260506010600 51 283 0.0 2.0 0.00 0.15 0.13 85 1018.2
20260506010057 51 281 0.0 2.0 0.00 0.15 0.13 85 1018.2
20260506005559 52 310 0.0 2.0 0.00 0.15 0.13 85 1018.3
20260506005055 52 310 0.0 1.0 0.00 0.15 0.13 84 1018.2
20260506004556 52 311 0.0 3.0 0.00 0.15 0.13 84 1018.2
20260506004055 52 311 1.0 3.0 0.00 0.15 0.13 84 1018.2
20260506003553 52 311 0.0 1.0 0.00 0.15 0.13 85 1018.3
20260506003053 52 311 0.0 1.0 0.00 0.15 0.13 86 1018.2
20260506002551 52 311 0.0 1.0 0.00 0.15 0.13 86 1018.2
20260506002050 51 311 0.0 1.0 0.00 0.15 0.13 85 1018.2
20260506001551 52 311 0.0 1.0 0.00 0.15 0.13 85 1018.3
20260506001050 52 311 0.0 0.0 0.00 0.15 0.13 85 1018.3
20260506000549 52 311 0.0 2.0 0.00 0.15 0.13 85 1018.2
20260506000052 51 311 0.0 2.0 0.00 0.15 0.13 85 1018.3
20260505235549 51 300 0.0 3.0 0.00 0.15 0.13 85 1018.3
20260505235049 51 300 1.0 3.0 0.00 0.15 0.13 85 1018.2
20260505234553 51 300 0.0 3.0 0.00 0.15 0.13 85 1018.3
20260505234051 51 300 0.0 3.0 0.00 0.15 0.13 85 1018.2
20260505233548 51 291 0.0 3.0 0.00 0.15 0.13 84 1018.0
20260505233049 51 290 1.0 3.0 0.00 0.15 0.13 84 1018.0
20260505232548 51 292 0.0 2.0 0.00 0.15 0.13 84 1018.1
20260505232048 51 291 0.0 2.0 0.00 0.15 0.13 84 1018.1
20260505231559 51 292 0.0 3.0 0.00 0.15 0.13 85 1018.0
20260505231048 51 291 0.0 4.0 0.00 0.15 0.13 85 1018.1
20260505230548 51 292 0.0 2.0 0.00 0.15 0.13 84 1018.0
20260505230056 51 291 0.0 2.0 0.00 0.15 0.13 84 1018.0
20260505225547 51 291 0.0 4.0 0.00 0.15 0.13 84 1018.1
20260505225053 52 291 1.0 4.0 0.00 0.15 0.13 84 1018.1
20260505224548 52 302 0.0 2.0 0.00 0.15 0.13 84 1018.1
20260505224046 52 302 0.0 2.0 0.00 0.15 0.13 84 1018.1
20260505223546 52 302 0.0 2.0 0.00 0.15 0.13 84 1018.1
20260505223046 52 302 0.0 2.0 0.00 0.15 0.13 84 1018.2
20260505222546 52 302 0.0 2.0 0.00 0.15 0.13 84 1018.3
20260505222045 52 304 1.0 2.0 0.00 0.15 0.13 85 1018.2
20260505221545 51 271 0.0 2.0 0.00 0.15 0.13 85 1018.2
20260505221044 51 267 0.0 3.0 0.00 0.15 0.13 84 1018.2
20260505220544 51 265 0.0 4.0 0.00 0.15 0.13 84 1018.2
20260505220044 51 290 1.0 5.0 0.00 0.15 0.13 85 1018.2
20260505215543 51 288 1.0 5.0 0.00 0.16 0.13 86 1018.1
20260505215043 50 296 1.0 4.0 0.00 0.16 0.13 86 1018.1
20260505214543 50 275 0.0 6.0 0.00 0.16 0.13 86 1018.2
20260505214042 50 284 2.0 6.0 0.00 0.16 0.13 85 1018.3
20260505213542 50 228 0.0 4.0 0.00 0.16 0.13 85 1018.3
20260505213052 50 287 1.0 4.0 0.00 0.16 0.13 86 1018.3
20260505212542 50 265 0.0 5.0 0.00 0.16 0.13 88 1018.2
20260505212041 50 226 1.0 5.0 0.00 0.16 0.13 87 1018.2
20260505211545 50 230 0.0 4.0 0.00 0.16 0.13 87 1018.3
20260505211043 49 242 1.0 7.0 0.00 0.16 0.13 87 1018.4
20260505210540 49 277 1.0 7.0 0.00 0.16 0.13 87 1018.3
20260505210040 49 285 2.0 8.0 0.00 0.16 0.13 86 1018.2
20260505205540 49 288 2.0 8.0 0.00 0.19 0.13 87 1018.1
20260505205041 50 284 3.0 8.0 0.00 0.19 0.13 88 1018.1
20260505204540 50 301 3.0 5.0 0.00 0.19 0.13 88 1018.3
20260505204039 50 261 2.0 5.0 0.00 0.19 0.13 88 1018.2
20260505203539 50 240 2.0 5.0 0.00 0.19 0.13 87 1018.2
20260505203039 50 238 3.0 7.0 0.00 0.19 0.13 86 1018.1
20260505202539 50 282 3.0 7.0 0.00 0.19 0.13 86 1018.1
20260505202040 50 283 2.0 9.0 0.00 0.19 0.13 86 1017.9
20260505201539 50 282 3.0 9.0 0.00 0.19 0.13 86 1017.9
20260505201039 50 309 3.0 5.0 0.00 0.19 0.13 87 1018.0
20260505200539 50 288 2.0 7.0 0.00 0.19 0.13 86 1018.1
20260505200040 50 300 2.0 8.0 0.00 0.19 0.13 86 1018.2
20260505195538 50 304 3.0 8.0 0.00 0.19 0.13 86 1018.1
20260505195037 50 291 1.0 4.0 0.00 0.19 0.13 84 1018.3
20260505194537 51 281 1.0 8.0 0.00 0.19 0.13 85 1018.2
20260505194036 51 289 1.0 8.0 0.00 0.19 0.13 87 1018.2
20260505193534 51 297 2.0 7.0 0.00 0.19 0.13 86 1018.2
20260505193033 51 262 2.0 7.0 0.00 0.19 0.13 87 1018.1
20260505192535 51 311 2.0 5.0 0.00 0.19 0.13 88 1018.2
20260505192031 50 273 1.0 8.0 0.00 0.19 0.13 87 1018.0
20260505191533 50 284 2.0 8.0 0.00 0.19 0.13 88 1018.2
20260505191031 50 291 2.0 7.0 0.00 0.19 0.13 88 1018.1
20260505190527 50 288 2.0 7.0 0.00 0.19 0.13 89 1018.0
20260505190027 49 292 1.0 7.0 0.00 0.19 0.13 89 1017.9
20260505185525 49 290 3.0 6.0 0.00 0.19 0.13 89 1017.9
20260505185024 49 248 2.0 8.0 0.00 0.19 0.13 88 1017.8
20260505184524 49 285 3.0 9.0 0.00 0.19 0.13 88 1017.7
20260505184024 49 292 3.0 9.0 0.00 0.19 0.13 88 1017.7
20260505183523 49 303 3.0 6.0 0.00 0.19 0.13 89 1017.8
20260505183033 49 302 2.0 5.0 0.00 0.19 0.13 89 1017.7
20260505182523 49 301 1.0 4.0 0.00 0.19 0.13 89 1017.8
20260505182023 49 287 1.0 4.0 0.00 0.19 0.13 89 1017.7
20260505181522 49 307 1.0 4.0 0.00 0.19 0.13 89 1017.7
20260505181021 49 290 1.0 3.0 0.00 0.19 0.13 89 1017.8
20260505180519 49 293 0.0 3.0 0.00 0.19 0.13 89 1017.6
20260505180038 49 294 1.0 3.0 0.00 0.19 0.13 90 1017.6
20260505175516 48 271 1.0 5.0 0.00 0.19 0.13 90 1017.6
20260505175016 48 290 0.0 5.0 0.00 0.19 0.13 91 1017.5
20260505174515 48 255 1.0 4.0 0.00 0.19 0.13 91 1017.3
20260505174015 48 272 1.0 5.0 0.01 0.19 0.13 91 1017.3
20260505173514 48 278 2.0 7.0 0.01 0.19 0.13 91 1017.3
20260505173014 48 288 2.0 7.0 0.01 0.19 0.13 91 1017.2
20260505172516 48 240 1.0 5.0 0.01 0.19 0.13 92 1017.1
20260505172017 48 284 2.0 5.0 0.01 0.19 0.13 92 1017.3
20260505171513 48 219 2.0 5.0 0.01 0.19 0.13 92 1017.1
20260505171114 48 263 2.0 4.0 0.01 0.19 0.13 92 1017.0
20260505170512 48 253 2.0 4.0 0.01 0.19 0.13 92 1017.1
20260505170012 47 250 2.0 4.0 0.01 0.20 0.13 92 1017.2
20260505165509 47 215 2.0 6.0 0.01 0.20 0.13 92 1017.1
20260505165011 47 248 1.0 4.0 0.01 0.20 0.13 92 1016.8
20260505164509 47 281 2.0 7.0 0.00 0.19 0.12 93 1016.9
20260505164009 47 229 2.0 8.0 0.00 0.19 0.12 93 1017.0
20260505163513 48 288 2.0 8.0 0.00 0.19 0.12 93 1017.0
20260505163008 47 242 1.0 5.0 0.00 0.19 0.12 93 1016.9
20260505162505 47 211 2.0 4.0 0.00 0.19 0.12 93 1017.0
20260505162003 47 245 1.0 4.0 0.00 0.19 0.12 93 1017.0
20260505161504 47 286 1.0 4.0 0.00 0.19 0.12 93 1016.9
20260505161003 47 284 0.0 0.0 0.00 0.19 0.12 93 1016.9
20260505160501 47 284 0.0 0.0 0.00 0.19 0.12 93 1016.9
20260505153058 46 284 0.0 2.0 0.01 0.19 0.12 93 1016.8
20260505152557 46 284 0.0 0.0 0.01 0.19 0.12 93 1016.9
20260505152059 46 284 0.0 1.0 0.01 0.19 0.12 93 1016.8
20260505151554 46 284 0.0 1.0 0.01 0.19 0.12 93 1016.9
20260505151054 45 284 0.0 1.0 0.01 0.19 0.12 93 1016.8
20260505150554 45 284 0.0 1.0 0.01 0.19 0.12 93 1016.8
20260505140544 44 284 0.0 2.0 0.01 0.21 0.11 93 1016.4
20260505125039 44 284 1.0 2.0 0.00 0.39 0.10 93 1016.3
20260505124538 44 284 1.0 2.0 0.00 0.39 0.10 93 1016.3
20260505124038 44 284 0.0 3.0 0.00 0.39 0.10 93 1016.3
20260505123537 44 284 0.0 3.0 0.00 0.39 0.10 93 1016.3
20260505123038 44 284 0.0 3.0 0.00 0.39 0.10 93 1016.3
20260505122537 44 263 1.0 3.0 0.00 0.39 0.10 93 1016.1
20260505122036 45 261 1.0 3.0 0.00 0.39 0.10 93 1016.1
20260505121536 45 238 1.0 3.0 0.00 0.39 0.10 93 1016.2
20260505121036 45 238 0.0 2.0 0.00 0.39 0.10 93 1016.1
20260505120536 45 238 0.0 3.0 0.01 0.39 0.10 93 1016.0
20260505120035 45 238 1.0 3.0 0.01 0.39 0.10 93 1016.0
20260505115535 45 239 1.0 2.0 0.01 0.44 0.10 93 1016.0
20260505115035 45 239 0.0 2.0 0.01 0.44 0.10 93 1016.0
20260505114536 45 236 0.0 2.0 0.01 0.44 0.10 93 1016.0
20260505114035 45 236 0.0 3.0 0.01 0.44 0.10 93 1016.0
20260505113546 45 238 1.0 3.0 0.01 0.44 0.10 93 1016.0
20260505113039 45 238 1.0 3.0 0.01 0.44 0.10 93 1016.0
20260505112533 45 238 1.0 3.0 0.01 0.44 0.10 93 1016.0
20260505112033 45 238 1.0 4.0 0.01 0.44 0.10 93 1015.9
20260505111532 45 244 1.0 3.0 0.01 0.44 0.10 93 1016.0
20260505111033 45 246 1.0 3.0 0.01 0.43 0.09 93 1016.2
20260505110533 45 248 1.0 3.0 0.01 0.43 0.09 93 1016.2
20260505102027 45 261 0.0 2.0 0.03 0.43 0.09 93 1016.1
20260505101548 45 261 0.0 2.0 0.03 0.43 0.09 93 1016.2
20260505101029 45 261 1.0 3.0 0.02 0.42 0.08 93 1016.1
20260505100526 45 260 0.0 3.0 0.02 0.42 0.08 93 1016.1
20260505100052 45 250 1.0 3.0 0.02 0.42 0.08 93 1016.1
20260505095527 45 267 1.0 3.0 0.02 0.42 0.08 92 1016.2
20260505095025 45 282 0.0 3.0 0.02 0.42 0.08 92 1016.3
20260505094530 45 241 0.0 2.0 0.01 0.41 0.07 92 1016.4
20260505094025 45 239 0.0 3.0 0.02 0.41 0.07 92 1016.3
20260505093524 45 239 1.0 3.0 0.02 0.41 0.07 92 1016.2
20260505093025 45 240 0.0 2.0 0.02 0.41 0.07 92 1016.3
20260505092522 45 240 1.0 3.0 0.02 0.41 0.07 92 1016.4
20260505092021 45 240 1.0 3.0 0.02 0.40 0.06 92 1016.4
20260505091520 45 240 0.0 1.0 0.02 0.40 0.06 92 1016.5
20260505091020 45 240 0.0 2.0 0.02 0.40 0.06 92 1016.5
20260505090520 45 240 0.0 3.0 0.03 0.40 0.06 92 1016.5
20260505090019 45 240 0.0 3.0 0.03 0.40 0.06 92 1016.4
20260505085519 45 240 1.0 2.0 0.03 0.40 0.06 92 1016.4
20260505085018 45 240 1.0 4.0 0.04 0.40 0.06 92 1016.5
20260505084517 45 238 1.0 4.0 0.04 0.40 0.06 92 1016.5
20260505084016 45 237 1.0 4.0 0.03 0.39 0.05 92 1016.4
20260505083516 45 242 0.0 2.0 0.04 0.39 0.05 92 1016.6
20260505083018 45 242 0.0 2.0 0.04 0.39 0.05 92 1016.6
20260505082515 45 242 0.0 2.0 0.04 0.39 0.05 92 1016.7
20260505082015 45 242 0.0 2.0 0.03 0.38 0.04 92 1016.6
20260505081514 45 242 0.0 2.0 0.03 0.38 0.04 92 1016.6
20260505081014 45 241 0.0 2.0 0.04 0.38 0.04 92 1016.6
20260505080513 45 242 0.0 2.0 0.03 0.37 0.03 92 1016.6
20260505080014 45 242 0.0 2.0 0.03 0.37 0.03 92 1016.7
20260505075513 45 242 0.0 2.0 0.03 0.37 0.03 92 1016.7
20260505075013 45 242 0.0 2.0 0.02 0.36 0.02 92 1016.8
20260505074512 45 242 0.0 2.0 0.02 0.36 0.02 92 1016.7
20260505074012 45 242 0.0 4.0 0.02 0.35 0.01 92 1016.8
20260505073511 45 240 1.0 4.0 0.02 0.35 0.01 92 1016.7
20260505073028 45 239 0.0 3.0 0.02 0.35 0.01 92 1016.7
20260505072509 45 240 0.0 2.0 0.02 0.35 0.01 92 1016.7
20260505072009 45 240 1.0 2.0 0.02 0.35 0.01 92 1016.6
20260505071508 45 240 0.0 2.0 0.02 0.35 0.01 92 1016.7
20260505071007 45 240 1.0 3.0 0.02 0.34 0.00 92 1016.7
20260505070512 45 240 0.0 3.0 0.02 0.34 0.00 92 1016.6
20260505070006 45 240 0.0 3.0 0.02 0.34 0.34 92 1016.7
20260505065506 45 241 1.0 3.0 0.02 0.34 0.34 92 1016.6
20260505065006 45 241 1.0 3.0 0.02 0.34 0.34 92 1016.6
20260505064505 46 242 1.0 2.0 0.02 0.34 0.34 92 1016.6
20260505064005 46 241 1.0 4.0 0.01 0.33 0.33 92 1016.7
20260505063505 46 240 1.0 4.0 0.01 0.33 0.33 92 1016.6
20260505063005 46 240 1.0 3.0 0.01 0.33 0.33 92 1016.6
20260505062505 46 243 1.0 3.0 0.01 0.33 0.33 92 1016.6
20260505062010 46 243 1.0 3.0 0.01 0.33 0.33 92 1016.6
20260505061514 46 243 1.0 3.0 0.01 0.33 0.33 92 1016.6
20260505061004 46 243 1.0 3.0 0.00 0.32 0.32 92 1016.6
20260505060505 46 244 0.0 3.0 0.00 0.32 0.32 92 1016.7
20260505060004 46 244 0.0 2.0 0.00 0.32 0.32 92 1016.6
20260505055504 46 258 0.0 3.0 0.00 0.32 0.32 92 1016.6
20260505055004 46 258 1.0 4.0 0.00 0.32 0.32 92 1016.6
20260505054504 46 249 0.0 4.0 0.00 0.32 0.32 92 1016.6
20260505054005 46 269 0.0 3.0 0.00 0.32 0.32 92 1016.7
20260505053504 46 273 1.0 3.0 0.00 0.32 0.32 92 1016.6
20260505053003 46 248 1.0 3.0 0.00 0.32 0.32 92 1016.7
20260505052502 46 247 1.0 3.0 0.00 0.32 0.32 92 1016.7
20260505052004 46 248 1.0 3.0 0.00 0.32 0.32 92 1016.8
20260505051505 46 246 1.0 4.0 0.00 0.32 0.32 92 1016.8
20260505051002 46 246 1.0 4.0 0.00 0.32 0.32 92 1016.9
20260505050501 47 250 2.0 3.0 0.00 0.32 0.32 92 1016.9